THORAD AGENA D DEB, 6765

Orbit data source: Space-Track

THORAD AGENA D DEB, 6765 is space debris in SSO originally from a launch on Wed, 08 Apr 1970 UTC launched from the Air Force Western Test Range (AFWTR). Debris objects in space refer to the collection of defunct objects orbiting the Earth. Examples of debris include non-operational satellites, rocket bodies, and fragments generated from explosions, collisions, or faulty payload assembly.

Loading next visibility...
Identifier
6765, 1970-025NG
Orbit
SSO
Country
Flag of USUS
Related business
Manufacturer
Unknown
Mission
Spacecraft
Bus & Motor
Unknown
Mass
Unknown
Launch date (UTC)
1970-04-08 (56 years ago)
Launch vehicle
Unknown
Launch site
Air Force Western Test Range (AFWTR)
Object type
Payload
Rocket body
Debris
Shape & HBR
Unknown shape, 0.1 m
Radar Cross Section
Medium (>0.1 m² and <1 m²)

Expand to show TLE details & history
Last TLE update: 1 day ago

TLE from 1 day ago
0 THORAD AGENA D DEB
1  6765U 70025NG  26236.30275465  .00000118  00000-0  23298-3 0  9996
2  6765  99.8158 164.8448 0015280 163.8717 347.7595 13.55810529779934
Epoch: 2026-08-24T07:15Z
TLE epoch observation values (Epoch: 2026-08-24T07:15:58.001Z)
Latitude
27.99592°
Longitude
-91.4832°
Altitude
1,043.194 km
Speed
7.338 km/s
True Right ascension
23h 20m 22s
True Declination
27° 51' 33"
Sunlit
Object was in full shadow at epoch
Visualization orbit readout
Latitude
Unknown
Longitude
Unknown
Altitude
Unknown
Speed
Unknown
Apparent Right ascension
Unknown
Apparent Declination
Unknown
Sunlit
N/A
Visualization observer readout
Local Sidereal Time
02:28:11
Azimuth
Unknown
Elevation
Unknown
Doppler factor
Unknown
Orbital elements
Apogee altitude
1,059.604 km
Perigee altitude
1,036.909 km
Semi-major axis
7,426.393 km
Eccentricity
0.00153
Inclination
99.8158°
RAAN
164.8448°
Arg. of periapsis
163.8717°
True anomaly
347.72231°
Mean anomaly
347.7595°
Eccentric anomaly
347.74091°
Mean motion
3.39138 °/min
Orbital period
106.15 mins
BSTAR
0.00023298
Loading maneuver chart data...
Computing Atmospheric mass density...

Documentation

Showing up to 5 results
|